937  
ASUS44 KSHV 302010  
RWRSHV  
 
WEATHER ROUNDUP FOR THE FOUR STATE AREA  
NATIONAL WEATHER SERVICE SHREVEPORT LA  
300 PM CDT THU MAR 30 2017  
 
NOTE: "FAIR" INDICATES FEW OR NO CLOUDS BELOW 12000 FEET  
WITH NO SIGNIFICANT WEATHER AND/OR S TO VISIBILITY
.  
 
!LAZ001-LAZ014-TXZ097-302100  
SHREVEPORT...MONROE...TEXARKANA RADIOS  
 
CITY SKY/WX TMP DP RH WIND PRES REMARKS
 
SHREVEPORT MOSUNNY 72 46 39 W13 29.76F  
MONROE SUNNY 73 50 44 SW13 29.74F  
NATCHITOCHES PTSUNNY 68 50 52 W8 29.80S  
TEXARKANA CLOUDY 64 46 52 W13 29.75F  

 
 
!LAZ001-LAZ014-TXZ097-302100  
OTHER LOCATIONS...  
 
CITY SKY/WX TMP DP RH WIND PRES REMARKS
 
DOWNTOWN SHV SUNNY 70 47 43 SW13G20 29.76F  
BOSSIER CITY NOT AVBL  
RUSTON MOSUNNY 70 45 40 W12G17 29.80S  
LITTLE ROCK PTSUNNY 61 44 53 SW20G31 29.71F  
EL DORADO MOSUNNY 67 47 48 SW13 29.74F  
JACKSON CLOUDY 70 57 63 S13 29.75F  
NEW ORLEANS CLOUDY 66 61 84 SE13 29.78F  
HOUSTON MOSUNNY 74 48 39 N12 29.84F  
LUFKIN SUNNY 72 47 40 VRB6 29.81F  
TYLER SUNNY 71 44 37 NW13G21 29.78F  
DAL FT WORTH MOSUNNY 75 44 33 W22 29.75F  

 
 
!TXZ136-TXZ165-302100  
TYLER...LUFKIN RADIOS  
 
CITY SKY/WX TMP DP RH WIND PRES REMARKS
 
TYLER SUNNY 71 44 37 NW13G21 29.78F  
GILMER CLEAR 69 44 40 W8G16 29.76F  
LONGVIEW SUNNY 71 46 40 W14 29.76F  
LUFKIN SUNNY 72 47 40 VRB6 29.81F  

 
 
!TXZ136-TXZ165-302100  
OTHER LOCATIONS...  
 
CITY SKY/WX TMP DP RH WIND PRES REMARKS
 
NACOGDOCHES SUNNY 72 46 40 NW12G18 29.79F  
BEAUMONT SUNNY 76 50 40 W13 29.81F  
HOUSTON MOSUNNY 74 48 39 N12 29.84F  
COLLEGE STN SUNNY 73 47 39 W13 29.84F  
AUSTIN SUNNY 78 41 26 W6 29.85F  
DAL FT WORTH MOSUNNY 75 44 33 W22 29.75F  
TEXARKANA CLOUDY 64 46 52 W13 29.75F  
SHREVEPORT MOSUNNY 72 46 39 W13 29.76F  
FORT POLK MOSUNNY 71 50 47 NW6 29.78F  
LAKE CHARLES SUNNY 74 52 46 W8 29.79F  

 
 
 
CLICK HERE TO GO TO PREVIOUS BULLETINS.

The Nexlab LA Page
The Nexlab TX Page
The Nexlab AR Page
The Nexlab OK Page Main Text Page